| time (UTC) | temp C | wind direction | speed KPH | gust KPH | rain 1hr cm | rain 24hr cm | rain mn cm | humidity % | barometer mb |
| 20260902212026 | 35 | 275 | 1.6 | 4.8 | 0.00 | 0.00 | 0.00 | 65 | 1015.0 |
| 20260902211026 | 35 | 272 | 1.6 | 4.8 | 0.00 | 0.00 | 0.00 | 64 | 1015.1 |
| 20260902210025 | 35 | 269 | 4.8 | 6.4 | 0.00 | 0.00 | 0.00 | 65 | 1015.2 |
| 20260902204026 | 34 | 266 | 4.8 | 9.7 | 0.00 | 0.00 | 0.00 | 68 | 1015.5 |
| 20260902203026 | 35 | 275 | 3.2 | 6.4 | 0.00 | 0.00 | 0.00 | 66 | 1015.6 |
| 20260902202025 | 35 | 269 | 4.8 | 9.7 | 0.00 | 0.00 | 0.00 | 65 | 1015.7 |
| 20260902201026 | 35 | 209 | 0.0 | 8.0 | 0.00 | 0.00 | 0.00 | 63 | 1015.6 |
| 20260902200026 | 35 | 156 | 3.2 | 6.4 | 0.00 | 0.00 | 0.00 | 66 | 1015.7 |
| 20260902195025 | 34 | 265 | 1.6 | 4.8 | 0.00 | 0.00 | 0.00 | 67 | 1015.9 |
| 20260902193025 | 33 | 276 | 0.0 | 6.4 | 0.00 | 0.00 | 0.00 | 68 | 1016.0 |
| 20260902192025 | 34 | 274 | 1.6 | 6.4 | 0.00 | 0.00 | 0.00 | 67 | 1016.1 |
| 20260902191025 | 33 | 265 | 1.6 | 12.9 | 0.00 | 0.00 | 0.00 | 68 | 1016.1 |
| 20260902190025 | 33 | 276 | 4.8 | 9.7 | 0.00 | 0.00 | 0.00 | 69 | 1016.1 |
| 20260902184025 | 33 | 273 | 3.2 | 11.3 | 0.00 | 0.00 | 0.00 | 69 | 1016.3 |
| 20260902183025 | 33 | 253 | 1.6 | 6.4 | 0.00 | 0.00 | 0.00 | 69 | 1016.2 |
| 20260902181025 | 32 | 273 | 1.6 | 14.5 | 0.00 | 0.00 | 0.00 | 71 | 1016.3 |
| 20260902180025 | 32 | 277 | 6.4 | 16.1 | 0.00 | 0.00 | 0.00 | 71 | 1016.3 |
| 20260902175025 | 32 | 283 | 14.5 | 19.3 | 0.00 | 0.00 | 0.00 | 68 | 1016.4 |
| 20260902174025 | 32 | 274 | 6.4 | 12.9 | 0.00 | 0.00 | 0.00 | 68 | 1016.5 |
| 20260902173025 | 32 | 280 | 3.2 | 14.5 | 0.00 | 0.00 | 0.00 | 68 | 1016.5 |
| 20260902171025 | 32 | 277 | 9.7 | 14.5 | 0.00 | 0.00 | 0.00 | 71 | 1016.7 |
| 20260902170025 | 32 | 273 | 3.2 | 11.3 | 0.00 | 0.00 | 0.00 | 72 | 1016.8 |
| 20260902164026 | 32 | 277 | 3.2 | 11.3 | 0.00 | 0.00 | 0.00 | 73 | 1016.8 |
| 20260902163025 | 31 | 279 | 9.7 | 11.3 | 0.00 | 0.00 | 0.00 | 73 | 1017.0 |
| 20260902162025 | 31 | 271 | 0.0 | 14.5 | 0.00 | 0.00 | 0.00 | 73 | 1017.1 |
| 20260902161025 | 31 | 269 | 1.6 | 11.3 | 0.00 | 0.00 | 0.00 | 75 | 1017.1 |
| 20260902160025 | 31 | 270 | 9.7 | 16.1 | 0.00 | 0.00 | 0.00 | 75 | 1017.0 |
| 20260902155025 | 30 | 272 | 4.8 | 14.5 | 0.00 | 0.00 | 0.00 | 76 | 1017.0 |
| 20260902153025 | 30 | 279 | 9.7 | 16.1 | 0.00 | 0.00 | 0.00 | 78 | 1017.0 |
| 20260902150024 | 29 | 273 | 3.2 | 14.5 | 0.00 | 0.00 | 0.00 | 78 | 1017.1 |
| 20260902145028 | 28 | 280 | 3.2 | 14.5 | 0.00 | 0.00 | 0.00 | 79 | 1017.1 |
| 20260902143025 | 28 | 270 | 4.8 | 11.3 | 0.00 | 0.00 | 0.00 | 79 | 1017.0 |
| 20260902142025 | 28 | 274 | 4.8 | 6.4 | 0.00 | 0.00 | 0.00 | 81 | 1017.0 |
| 20260902140025 | 27 | 273 | 3.2 | 12.9 | 0.00 | 0.00 | 0.00 | 83 | 1017.1 |
| 20260902135025 | 27 | 271 | 3.2 | 6.4 | 0.00 | 0.00 | 0.00 | 84 | 1017.0 |
| 20260902134024 | 26 | 277 | 3.2 | 6.4 | 0.00 | 0.00 | 0.00 | 86 | 1017.1 |
| 20260902133025 | 26 | 273 | 3.2 | 6.4 | 0.00 | 0.00 | 0.00 | 87 | 1017.1 |
| 20260902132024 | 25 | 269 | 0.0 | 4.8 | 0.00 | 0.00 | 0.00 | 88 | 1017.2 |
| 20260902131024 | 25 | 271 | 1.6 | 6.4 | 0.00 | 0.00 | 0.00 | 89 | 1017.1 |
| 20260902130025 | 24 | 278 | 0.0 | 3.2 | 0.00 | 0.00 | 0.00 | 91 | 1017.1 |
| 20260902125024 | 23 | 253 | 0.0 | 3.2 | 0.00 | 0.00 | 0.00 | 92 | 1017.2 |
| 20260902124024 | 23 | 253 | 0.0 | 0.0 | 0.00 | 0.00 | 0.00 | 92 | 1017.2 |
| 20260902123024 | 22 | 253 | 0.0 | 1.6 | 0.00 | 0.00 | 0.00 | 93 | 1017.3 |
| 20260902122024 | 22 | 253 | 0.0 | 1.6 | 0.00 | 0.00 | 0.00 | 93 | 1017.3 |
| 20260902121024 | 22 | 130 | 0.0 | 0.0 | 0.00 | 0.00 | 0.00 | 93 | 1017.2 |
| 20260902120027 | 22 | 130 | 0.0 | 1.6 | 0.00 | 0.00 | 0.00 | 94 | 1017.2 |
| 20260902115024 | 22 | 130 | 0.0 | 0.0 | 0.00 | 0.00 | 0.00 | 94 | 1017.0 |
| 20260902114024 | 22 | 130 | 0.0 | 1.6 | 0.00 | 0.00 | 0.00 | 94 | 1017.0 |
| 20260902113024 | 22 | 207 | 0.0 | 0.0 | 0.00 | 0.00 | 0.00 | 94 | 1017.0 |
| 20260902112024 | 22 | 207 | 0.0 | 1.6 | 0.00 | 0.00 | 0.00 | 94 | 1017.0 |
| 20260902110024 | 22 | 202 | 0.0 | 3.2 | 0.00 | 0.00 | 0.00 | 94 | 1017.0 |
| 20260902105024 | 22 | 262 | 0.0 | 3.2 | 0.00 | 0.00 | 0.00 | 94 | 1017.1 |
| 20260902104024 | 21 | 263 | 0.0 | 0.0 | 0.00 | 0.00 | 0.00 | 94 | 1017.1 |
| 20260902102024 | 21 | 263 | 0.0 | 0.0 | 0.00 | 0.00 | 0.00 | 94 | 1017.0 |
| 20260902101024 | 22 | 263 | 0.0 | 0.0 | 0.00 | 0.00 | 0.00 | 93 | 1017.1 |
| 20260902100024 | 22 | 263 | 0.0 | 0.0 | 0.00 | 0.00 | 0.00 | 93 | 1017.0 |
| 20260902095024 | 22 | 263 | 0.0 | 0.0 | 0.00 | 0.00 | 0.00 | 92 | 1017.0 |
| 20260902094024 | 22 | 263 | 0.0 | 0.0 | 0.00 | 0.00 | 0.00 | 92 | 1016.8 |
| 20260902093024 | 22 | 263 | 0.0 | 1.6 | 0.00 | 0.00 | 0.00 | 91 | 1016.7 |
| 20260902092024 | 23 | 263 | 1.6 | 3.2 | 0.00 | 0.00 | 0.00 | 90 | 1016.5 |
| 20260902091024 | 23 | 263 | 0.0 | 1.6 | 0.00 | 0.00 | 0.00 | 90 | 1016.6 |
| 20260902090024 | 23 | 263 | 0.0 | 1.6 | 0.00 | 0.00 | 0.00 | 89 | 1016.6 |
| 20260902085024 | 23 | 263 | 0.0 | 3.2 | 0.00 | 0.00 | 0.00 | 89 | 1016.5 |
| 20260902084024 | 23 | 263 | 0.0 | 3.2 | 0.00 | 0.00 | 0.00 | 89 | 1016.7 |
| 20260902083024 | 23 | 263 | 0.0 | 0.0 | 0.00 | 0.00 | 0.00 | 88 | 1016.6 |
| 20260902082024 | 23 | 263 | 0.0 | 0.0 | 0.00 | 0.00 | 0.00 | 88 | 1016.5 |
| 20260902081024 | 23 | 263 | 0.0 | 0.0 | 0.00 | 0.00 | 0.00 | 88 | 1016.5 |
| 20260902080024 | 23 | 249 | 0.0 | 0.0 | 0.00 | 0.00 | 0.00 | 88 | 1016.5 |
| 20260902074023 | 23 | 249 | 0.0 | 0.0 | 0.00 | 0.00 | 0.00 | 88 | 1016.6 |
| 20260902073024 | 23 | 246 | 0.0 | 0.0 | 0.00 | 0.00 | 0.00 | 88 | 1016.7 |
| 20260902072023 | 23 | 246 | 0.0 | 0.0 | 0.00 | 0.00 | 0.00 | 88 | 1016.7 |
| 20260902071024 | 23 | 246 | 0.0 | 1.6 | 0.00 | 0.00 | 0.00 | 88 | 1016.6 |
| 20260902070025 | 23 | 242 | 0.0 | 0.0 | 0.00 | 0.00 | 0.00 | 88 | 1016.6 |
| 20260902065023 | 23 | 242 | 0.0 | 1.6 | 0.00 | 0.00 | 0.00 | 88 | 1016.7 |
| 20260902064023 | 23 | 235 | 0.0 | 1.6 | 0.00 | 0.00 | 0.00 | 88 | 1016.7 |
| 20260902062023 | 23 | 219 | 0.0 | 1.6 | 0.00 | 0.00 | 0.00 | 90 | 1016.6 |
| 20260902061024 | 23 | 219 | 0.0 | 0.0 | 0.00 | 0.00 | 0.00 | 90 | 1016.6 |
| 20260902060024 | 24 | 219 | 0.0 | 0.0 | 0.00 | 0.00 | 0.00 | 90 | 1016.7 |
| 20260902054023 | 24 | 219 | 0.0 | 0.0 | 0.00 | 0.00 | 0.00 | 89 | 1016.6 |
| 20260902053023 | 25 | 219 | 0.0 | 0.0 | 0.00 | 0.00 | 0.00 | 89 | 1016.6 |
| 20260902052023 | 25 | 219 | 0.0 | 1.6 | 0.00 | 0.00 | 0.00 | 88 | 1016.6 |
| 20260902051023 | 25 | 217 | 0.0 | 1.6 | 0.00 | 0.00 | 0.00 | 88 | 1016.6 |
| 20260902050023 | 25 | 214 | 0.0 | 4.8 | 0.00 | 0.00 | 0.00 | 87 | 1016.6 |
| 20260902045023 | 26 | 263 | 1.6 | 1.6 | 0.00 | 0.00 | 0.00 | 87 | 1016.7 |
| 20260902044023 | 26 | 263 | 1.6 | 3.2 | 0.00 | 0.00 | 0.00 | 87 | 1016.6 |
| 20260902043023 | 26 | 263 | 0.0 | 1.6 | 0.00 | 0.00 | 0.00 | 86 | 1016.4 |
| 20260902040023 | 27 | 150 | 0.0 | 1.6 | 0.00 | 0.00 | 0.00 | 82 | 1016.4 |
| 20260902035023 | 27 | 163 | 0.0 | 3.2 | 0.00 | 0.00 | 0.00 | 82 | 1016.4 |
| 20260902034023 | 27 | 146 | 0.0 | 0.0 | 0.00 | 0.00 | 0.00 | 83 | 1016.4 |
| 20260902033023 | 27 | 146 | 0.0 | 0.0 | 0.00 | 0.00 | 0.00 | 84 | 1016.5 |
| 20260902032023 | 27 | 146 | 0.0 | 0.0 | 0.00 | 0.00 | 0.00 | 85 | 1016.5 |
| 20260902031023 | 27 | 146 | 0.0 | 0.0 | 0.00 | 0.00 | 0.00 | 85 | 1016.5 |
| 20260902030023 | 27 | 146 | 0.0 | 0.0 | 0.00 | 0.00 | 0.00 | 85 | 1016.5 |
| 20260902025023 | 27 | 146 | 0.0 | 0.0 | 0.00 | 0.00 | 0.00 | 85 | 1016.5 |
| 20260902024023 | 27 | 146 | 0.0 | 0.0 | 0.00 | 0.00 | 0.00 | 86 | 1016.4 |
| 20260902022022 | 28 | 146 | 0.0 | 0.0 | 0.00 | 0.00 | 0.00 | 86 | 1016.4 |
| 20260902021023 | 28 | 146 | 0.0 | 1.6 | 0.00 | 0.00 | 0.00 | 86 | 1016.3 |
| 20260902020023 | 28 | 146 | 0.0 | 0.0 | 0.00 | 0.00 | 0.00 | 85 | 1016.3 |
| 20260902015023 | 28 | 146 | 0.0 | 0.0 | 0.00 | 0.00 | 0.00 | 85 | 1016.2 |
| 20260902014022 | 28 | 146 | 0.0 | 0.0 | 0.00 | 0.00 | 0.00 | 84 | 1016.3 |
| 20260902013023 | 28 | 146 | 0.0 | 0.0 | 0.00 | 0.00 | 0.00 | 83 | 1015.9 |
| 20260902012023 | 29 | 146 | 0.0 | 0.0 | 0.00 | 0.00 | 0.00 | 81 | 1015.9 |
| 20260902011022 | 30 | 146 | 0.0 | 0.0 | 0.00 | 0.00 | 0.00 | 79 | 1015.9 |
| 20260902002022 | 31 | 146 | 0.0 | 3.2 | 0.00 | 0.00 | 0.00 | 77 | 1015.7 |
| 20260902000022 | 33 | 146 | 0.0 | 0.0 | 0.00 | 0.00 | 0.00 | 71 | 1015.8 |
| 20260901235022 | 34 | 146 | 0.0 | 1.6 | 0.00 | 0.00 | 0.00 | 67 | 1015.9 |
| 20260901234022 | 35 | 146 | 0.0 | 4.8 | 0.00 | 0.00 | 0.00 | 65 | 1015.9 |
| 20260901233022 | 35 | 178 | 0.0 | 1.6 | 0.00 | 0.00 | 0.00 | 67 | 1015.8 |
| 20260901232022 | 35 | 178 | 0.0 | 3.2 | 0.00 | 0.00 | 0.00 | 66 | 1015.9 |
| 20260901230022 | 36 | 165 | 0.0 | 3.2 | 0.00 | 0.00 | 0.00 | 64 | 1016.0 |
| 20260901225022 | 35 | 147 | 0.0 | 3.2 | 0.00 | 0.00 | 0.00 | 64 | 1016.1 |
| 20260901223022 | 36 | 244 | 0.0 | 1.6 | 0.00 | 0.00 | 0.00 | 65 | 1016.1 |
| 20260901222022 | 35 | 163 | 0.0 | 6.4 | 0.00 | 0.00 | 0.00 | 65 | 1016.0 |
| 20260901221022 | 35 | 230 | 0.0 | 4.8 | 0.00 | 0.00 | 0.00 | 63 | 1016.1 |
| 20260901220022 | 35 | 270 | 1.6 | 1.6 | 0.00 | 0.00 | 0.00 | 64 | 1016.0 |
| 20260901214022 | 35 | 270 | 1.6 | 3.2 | 0.00 | 0.00 | 0.00 | 65 | 1015.8 |
| 20260901213022 | 35 | 270 | 0.0 | 4.8 | 0.00 | 0.00 | 0.00 | 66 | 1015.8 |